Time,TemperatureF,DewpointF,PressureIn,WindDirection,WindDirectionDegrees,WindSpeedMPH,WindSpeedGustMPH,Humidity,HourlyPrecipIn,Conditions,Clouds,dailyrainin,SoftwareType,DateUTC
2013-02-01 00:01:00,48.0,44.0,30.29,SSW,208,2.0,8.0,87,0.00,,,0.09,,2013-02-01 00:01:00,
2013-02-01 00:11:00,48.0,44.0,30.29,SSW,208,2.0,8.0,87,0.00,,,0.09,,2013-02-01 00:11:00,
2013-02-01 00:21:00,48.0,45.0,30.29,South,181,1.0,6.0,88,0.00,,,0.09,,2013-02-01 00:21:00,
2013-02-01 00:31:00,48.0,45.0,30.29,WSW,243,1.0,6.0,88,0.00,,,0.09,,2013-02-01 00:31:00,
2013-02-01 00:42:00,48.0,45.0,30.29,WSW,243,1.0,6.0,88,0.00,,,0.09,,2013-02-01 00:42:00,
2013-02-01 00:52:00,48.0,45.0,30.29,WSW,243,1.0,3.0,88,0.00,,,0.09,,2013-02-01 00:52:00,
2013-02-01 01:01:00,48.0,45.0,30.29,SW,224,0.0,6.0,89,0.00,,,0.09,,2013-02-01 01:01:00,
2013-02-01 01:11:00,48.0,45.0,30.30,SW,234,2.0,5.0,89,0.00,,,0.08,,2013-02-01 01:11:00,
2013-02-01 01:21:00,48.0,45.0,30.30,SW,234,2.0,5.0,89,0.00,,,0.08,,2013-02-01 01:21:00,
2013-02-01 01:31:00,48.0,45.0,30.30,WSW,246,1.0,6.0,89,0.00,,,0.08,,2013-02-01 01:31:00,
2013-02-01 01:41:00,48.0,45.0,30.30,WSW,246,1.0,6.0,89,0.00,,,0.08,,2013-02-01 01:41:00,
2013-02-01 01:52:00,48.0,45.0,30.30,South,170,1.0,6.0,89,0.00,,,0.08,,2013-02-01 01:52:00,
2013-02-01 02:01:00,48.0,45.0,30.30,SSW,209,0.0,1.0,89,0.00,,,0.08,,2013-02-01 02:01:00,
2013-02-01 02:11:00,48.0,45.0,30.30,SSW,209,0.0,1.0,89,0.00,,,0.08,,2013-02-01 02:11:00,
2013-02-01 02:21:00,48.0,45.0,30.30,SW,229,0.0,4.0,90,0.00,,,0.08,,2013-02-01 02:21:00,
2013-02-01 02:31:00,47.0,44.0,30.30,SW,229,0.0,2.0,90,0.00,,,0.08,,2013-02-01 02:31:00,
2013-02-01 02:41:00,47.0,44.0,30.30,SW,229,0.0,2.0,90,0.00,,,0.08,,2013-02-01 02:41:00,
2013-02-01 02:52:00,47.0,45.0,30.30,SSW,199,1.0,4.0,91,0.00,,,0.08,,2013-02-01 02:52:00,
2013-02-01 03:01:00,47.0,45.0,30.30,SSW,201,0.0,2.0,91,0.00,,,0.08,,2013-02-01 03:01:00,
2013-02-01 03:11:00,47.0,45.0,30.30,SSW,201,0.0,2.0,91,0.00,,,0.08,,2013-02-01 03:11:00,
2013-02-01 03:21:00,47.0,45.0,30.30,SW,217,0.0,4.0,92,0.00,,,0.08,,2013-02-01 03:21:00,
2013-02-01 03:32:00,47.0,45.0,30.30,SW,217,0.0,0.0,92,0.00,,,0.08,,2013-02-01 03:32:00,
2013-02-01 03:41:00,47.0,45.0,30.30,SW,217,0.0,0.0,92,0.00,,,0.08,,2013-02-01 03:41:00,
2013-02-01 03:52:00,47.0,45.0,30.30,SW,217,0.0,0.0,92,0.00,,,0.08,,2013-02-01 03:52:00,
2013-02-01 04:01:00,47.0,45.0,30.30,SW,217,0.0,1.0,92,0.00,,,0.08,,2013-02-01 04:01:00,
2013-02-01 04:11:00,47.0,45.0,30.30,SW,217,0.0,1.0,92,0.00,,,0.08,,2013-02-01 04:11:00,
2013-02-01 04:21:00,47.0,45.0,30.30,SW,217,0.0,0.0,93,0.00,,,0.08,,2013-02-01 04:21:00,
2013-02-01 04:31:00,47.0,45.0,30.30,SW,217,0.0,0.0,93,0.00,,,0.08,,2013-02-01 04:31:00,
2013-02-01 04:41:00,47.0,45.0,30.30,SW,217,0.0,0.0,93,0.00,,,0.08,,2013-02-01 04:41:00,
2013-02-01 04:52:00,47.0,45.0,30.30,SW,217,0.0,0.0,93,0.00,,,0.08,,2013-02-01 04:52:00,
2013-02-01 05:02:00,47.0,45.0,30.31,SW,217,0.0,2.0,93,0.00,,,0.08,,2013-02-01 05:02:00,
2013-02-01 05:11:00,47.0,45.0,30.31,SW,217,0.0,2.0,93,0.00,,,0.08,,2013-02-01 05:11:00,
2013-02-01 05:22:00,47.0,45.0,30.31,SW,217,0.0,1.0,93,0.01,,,0.09,,2013-02-01 05:22:00,
2013-02-01 05:31:00,47.0,45.0,30.30,SSW,199,0.0,2.0,93,0.01,,,0.09,,2013-02-01 05:31:00,
2013-02-01 05:41:00,47.0,45.0,30.30,SSW,199,0.0,2.0,93,0.01,,,0.09,,2013-02-01 05:41:00,
2013-02-01 05:52:00,47.0,45.0,30.31,SSW,198,0.0,1.0,93,0.01,,,0.09,,2013-02-01 05:52:00,
2013-02-01 06:02:00,47.0,45.0,30.31,SSW,198,0.0,0.0,93,0.01,,,0.09,,2013-02-01 06:02:00,
2013-02-01 06:11:00,47.0,45.0,30.31,SSW,198,0.0,0.0,93,0.01,,,0.09,,2013-02-01 06:11:00,
2013-02-01 06:21:00,47.0,45.0,30.31,SSW,198,0.0,0.0,93,0.00,,,0.09,,2013-02-01 06:21:00,
2013-02-01 06:31:00,47.0,45.0,30.31,SSW,198,0.0,0.0,93,0.00,,,0.09,,2013-02-01 06:31:00,
2013-02-01 06:41:00,47.0,45.0,30.31,SSW,198,0.0,0.0,93,0.00,,,0.09,,2013-02-01 06:41:00,
2013-02-01 06:52:00,47.0,45.0,30.32,SSW,198,0.0,0.0,93,0.00,,,0.09,,2013-02-01 06:52:00,
2013-02-01 07:01:00,47.0,45.0,30.31,SSW,198,0.0,0.0,93,0.00,,,0.09,,2013-02-01 07:01:00,
2013-02-01 07:11:00,47.0,45.0,30.31,SSW,198,0.0,0.0,93,0.00,,,0.09,,2013-02-01 07:11:00,
2013-02-01 07:21:00,47.0,45.0,30.32,SSW,198,0.0,0.0,93,0.00,,,0.08,,2013-02-01 07:21:00,
2013-02-01 07:31:00,47.0,45.0,30.32,SSW,198,0.0,0.0,93,0.00,,,0.08,,2013-02-01 07:31:00,
2013-02-01 07:41:00,47.0,45.0,30.32,SSW,198,0.0,0.0,93,0.00,,,0.08,,2013-02-01 07:41:00,
2013-02-01 07:52:00,47.0,45.0,30.32,SSW,198,0.0,1.0,93,0.00,,,0.08,,2013-02-01 07:52:00,
2013-02-01 08:01:00,47.0,45.0,30.32,SSW,198,0.0,0.0,93,0.00,,,0.08,,2013-02-01 08:01:00,
2013-02-01 08:11:00,47.0,45.0,30.32,SSW,198,0.0,0.0,93,0.00,,,0.08,,2013-02-01 08:11:00,
2013-02-01 08:21:00,47.0,45.0,30.33,SSW,198,0.0,1.0,93,0.00,,,0.08,,2013-02-01 08:21:00,
2013-02-01 08:31:00,47.0,45.0,30.33,SSW,198,0.0,0.0,93,0.00,,,0.08,,2013-02-01 08:31:00,
2013-02-01 08:42:00,47.0,45.0,30.33,SSW,198,0.0,0.0,93,0.00,,,0.08,,2013-02-01 08:42:00,
2013-02-01 08:52:00,47.0,45.0,30.33,SSW,198,0.0,0.0,93,0.00,,,0.08,,2013-02-01 08:52:00,
2013-02-01 09:01:00,46.0,44.0,30.33,SSW,198,0.0,0.0,93,0.00,,,0.08,,2013-02-01 09:01:00,
2013-02-01 09:11:00,46.0,44.0,30.33,SSW,198,0.0,0.0,93,0.00,,,0.08,,2013-02-01 09:11:00,
2013-02-01 09:21:00,46.0,44.0,30.33,SSW,198,0.0,0.0,93,0.00,,,0.07,,2013-02-01 09:21:00,
2013-02-01 09:31:00,46.0,44.0,30.34,SSW,198,0.0,1.0,93,0.00,,,0.07,,2013-02-01 09:31:00,
2013-02-01 09:41:00,46.0,44.0,30.34,SSW,198,0.0,1.0,93,0.00,,,0.07,,2013-02-01 09:41:00,
2013-02-01 09:52:00,46.0,44.0,30.34,SSW,198,0.0,0.0,94,0.00,,,0.07,,2013-02-01 09:52:00,
2013-02-01 10:01:00,46.0,44.0,30.35,SSW,198,0.0,0.0,94,0.00,,,0.07,,2013-02-01 10:01:00,
2013-02-01 10:11:00,46.0,44.0,30.35,SSW,198,0.0,0.0,94,0.00,,,0.07,,2013-02-01 10:11:00,
2013-02-01 10:21:00,46.0,44.0,30.35,SSW,198,0.0,0.0,94,0.01,,,0.08,,2013-02-01 10:21:00,
2013-02-01 10:31:00,46.0,44.0,30.35,ENE,72,3.0,4.0,93,0.02,,,0.09,,2013-02-01 10:31:00,
2013-02-01 10:42:00,46.0,44.0,30.35,ENE,72,3.0,4.0,93,0.02,,,0.09,,2013-02-01 10:42:00,
2013-02-01 10:53:00,46.0,44.0,30.36,ENE,60,1.0,2.0,93,0.02,,,0.09,,2013-02-01 10:53:00,
2013-02-01 11:01:00,46.0,44.0,30.36,ENE,60,0.0,2.0,93,0.02,,,0.09,,2013-02-01 11:01:00,
2013-02-01 11:11:00,46.0,44.0,30.36,ENE,60,0.0,2.0,93,0.02,,,0.09,,2013-02-01 11:11:00,
2013-02-01 11:21:00,46.0,44.0,30.36,ENE,60,0.0,0.0,93,0.01,,,0.08,,2013-02-01 11:21:00,
2013-02-01 11:31:00,45.0,43.0,30.36,ENE,60,0.0,1.0,93,0.00,,,0.08,,2013-02-01 11:31:00,
2013-02-01 11:41:00,45.0,43.0,30.36,ENE,60,0.0,1.0,93,0.00,,,0.08,,2013-02-01 11:41:00,
2013-02-01 11:53:00,45.0,43.0,30.36,ENE,60,0.0,1.0,93,0.00,,,0.08,,2013-02-01 11:53:00,
2013-02-01 12:02:00,45.0,43.0,30.37,ENE,60,0.0,0.0,93,0.00,,,0.08,,2013-02-01 12:02:00,
2013-02-01 12:12:00,45.0,43.0,30.37,ENE,60,0.0,0.0,93,0.00,,,0.08,,2013-02-01 12:12:00,
2013-02-01 12:22:00,45.0,43.0,30.37,ENE,60,0.0,1.0,93,0.00,,,0.08,,2013-02-01 12:22:00,
2013-02-01 12:32:00,45.0,43.0,30.37,ENE,60,0.0,1.0,93,0.00,,,0.08,,2013-02-01 12:32:00,
2013-02-01 12:42:00,45.0,43.0,30.37,ENE,60,0.0,1.0,93,0.00,,,0.08,,2013-02-01 12:42:00,
2013-02-01 12:52:00,45.0,43.0,30.37,NNE,32,0.0,1.0,93,0.00,,,0.08,,2013-02-01 12:52:00,
2013-02-01 13:01:00,45.0,43.0,30.37,NNE,30,0.0,1.0,93,0.00,,,0.08,,2013-02-01 13:01:00,
2013-02-01 13:11:00,45.0,43.0,30.37,NNE,30,0.0,1.0,93,0.00,,,0.08,,2013-02-01 13:11:00,
2013-02-01 13:21:00,45.0,43.0,30.37,NNE,15,0.0,2.0,93,0.00,,,0.08,,2013-02-01 13:21:00,
2013-02-01 13:32:00,45.0,43.0,30.37,NNE,14,0.0,1.0,93,0.00,,,0.08,,2013-02-01 13:32:00,
2013-02-01 13:42:00,45.0,43.0,30.37,NNE,14,0.0,1.0,93,0.00,,,0.08,,2013-02-01 13:42:00,
2013-02-01 13:53:00,45.0,43.0,30.37,NNE,14,0.0,1.0,93,0.00,,,0.08,,2013-02-01 13:53:00,
2013-02-01 14:02:00,45.0,43.0,30.37,NNE,14,0.0,1.0,93,0.00,,,0.08,,2013-02-01 14:02:00,
2013-02-01 14:11:00,45.0,43.0,30.37,NNE,14,0.0,1.0,93,0.00,,,0.08,,2013-02-01 14:11:00,
2013-02-01 14:21:00,45.0,43.0,30.37,NNE,14,0.0,1.0,93,0.00,,,0.07,,2013-02-01 14:21:00,
2013-02-01 14:31:00,45.0,43.0,30.37,NNE,14,0.0,1.0,93,0.00,,,0.07,,2013-02-01 14:31:00,
2013-02-01 14:42:00,45.0,43.0,30.37,NNE,14,0.0,1.0,93,0.00,,,0.07,,2013-02-01 14:42:00,
2013-02-01 14:52:00,45.0,43.0,30.37,North,355,1.0,3.0,93,0.00,,,0.07,,2013-02-01 14:52:00,
2013-02-01 15:01:00,44.0,42.0,30.38,NNW,340,0.0,2.0,93,0.00,,,0.07,,2013-02-01 15:01:00,
2013-02-01 15:11:00,44.0,42.0,30.38,NNW,340,0.0,1.0,93,0.00,,,0.07,,2013-02-01 15:11:00,
2013-02-01 15:21:00,44.0,42.0,30.38,NNW,340,0.0,1.0,93,0.00,,,0.07,,2013-02-01 15:21:00,
2013-02-01 15:32:00,44.0,42.0,30.37,NNW,340,0.0,1.0,93,0.00,,,0.07,,2013-02-01 15:32:00,
2013-02-01 15:42:00,44.0,42.0,30.37,NNW,340,0.0,1.0,93,0.00,,,0.07,,2013-02-01 15:42:00,
2013-02-01 15:52:00,44.0,42.0,30.37,North,5,0.0,2.0,93,0.00,,,0.07,,2013-02-01 15:52:00,
2013-02-01 16:01:00,44.0,42.0,30.37,North,5,0.0,1.0,93,0.00,,,0.07,,2013-02-01 16:01:00,
2013-02-01 16:11:00,44.0,42.0,30.37,North,5,0.0,2.0,93,0.00,,,0.07,,2013-02-01 16:11:00,
2013-02-01 16:21:00,44.0,42.0,30.37,North,5,0.0,2.0,93,0.00,,,0.07,,2013-02-01 16:21:00,
2013-02-01 16:32:00,44.0,42.0,30.37,North,5,0.0,1.0,93,0.00,,,0.07,,2013-02-01 16:32:00,
2013-02-01 16:42:00,44.0,42.0,30.37,North,5,0.0,1.0,93,0.00,,,0.07,,2013-02-01 16:42:00,
2013-02-01 16:52:00,44.0,42.0,30.37,North,5,0.0,1.0,93,0.00,,,0.07,,2013-02-01 16:52:00,
2013-02-01 17:01:00,44.0,42.0,30.37,North,5,0.0,1.0,93,0.00,,,0.07,,2013-02-01 17:01:00,
2013-02-01 17:11:00,44.0,42.0,30.37,North,5,0.0,1.0,93,0.00,,,0.07,,2013-02-01 17:11:00,
2013-02-01 17:21:00,45.0,43.0,30.37,North,5,0.0,1.0,94,0.00,,,0.07,,2013-02-01 17:21:00,
2013-02-01 17:31:00,45.0,43.0,30.38,North,5,0.0,0.0,94,0.00,,,0.07,,2013-02-01 17:31:00,
2013-02-01 17:41:00,45.0,43.0,30.38,North,5,0.0,0.0,94,0.00,,,0.07,,2013-02-01 17:41:00,
2013-02-01 17:53:00,46.0,44.0,30.38,North,5,0.0,1.0,94,0.00,,,0.07,,2013-02-01 17:53:00,
2013-02-01 18:02:00,46.0,44.0,30.38,North,5,0.0,1.0,93,0.00,,,0.07,,2013-02-01 18:02:00,
2013-02-01 18:11:00,46.0,44.0,30.38,North,5,0.0,1.0,93,0.00,,,0.07,,2013-02-01 18:11:00,
2013-02-01 18:22:00,46.0,44.0,30.39,North,5,0.0,1.0,93,0.00,,,0.06,,2013-02-01 18:22:00,
2013-02-01 18:31:00,46.0,44.0,30.40,North,5,0.0,1.0,93,0.00,,,0.06,,2013-02-01 18:31:00,
2013-02-01 18:42:00,46.0,44.0,30.40,North,5,0.0,1.0,93,0.00,,,0.06,,2013-02-01 18:42:00,
2013-02-01 18:53:00,46.0,44.0,30.40,North,5,0.0,1.0,93,0.00,,,0.06,,2013-02-01 18:53:00,
2013-02-01 19:01:00,46.0,44.0,30.40,NE,54,1.0,3.0,93,0.00,,,0.06,,2013-02-01 19:01:00,
2013-02-01 19:11:00,46.0,44.0,30.40,NE,54,1.0,3.0,93,0.00,,,0.06,,2013-02-01 19:11:00,
2013-02-01 19:21:00,46.0,44.0,30.40,NE,50,2.0,4.0,92,0.00,,,0.03,,2013-02-01 19:21:00,
2013-02-01 19:31:00,47.0,45.0,30.40,ENE,59,3.0,4.0,91,0.00,,,0.03,,2013-02-01 19:31:00,
2013-02-01 19:41:00,47.0,45.0,30.40,ENE,59,3.0,4.0,91,0.00,,,0.03,,2013-02-01 19:41:00,
2013-02-01 19:52:00,46.0,44.0,30.40,ENE,62,3.0,5.0,91,0.00,,,0.03,,2013-02-01 19:52:00,
2013-02-01 20:01:00,46.0,44.0,30.41,NE,51,1.0,4.0,91,0.00,,,0.03,,2013-02-01 20:01:00,
2013-02-01 20:11:00,46.0,44.0,30.40,ENE,60,1.0,4.0,91,0.00,,,0.03,,2013-02-01 20:11:00,
2013-02-01 20:21:00,46.0,44.0,30.40,ENE,60,1.0,4.0,91,0.00,,,0.03,,2013-02-01 20:21:00,
2013-02-01 20:31:00,46.0,43.0,30.40,NE,39,3.0,5.0,90,0.00,,,0.03,,2013-02-01 20:31:00,
2013-02-01 20:41:00,46.0,43.0,30.40,NE,39,3.0,5.0,90,0.00,,,0.03,,2013-02-01 20:41:00,
2013-02-01 20:52:00,47.0,45.0,30.40,NE,46,2.0,4.0,91,0.00,,,0.03,,2013-02-01 20:52:00,
2013-02-01 21:01:00,47.0,44.0,30.40,NE,53,3.0,4.0,89,0.00,,,0.03,,2013-02-01 21:01:00,
2013-02-01 21:11:00,47.0,44.0,30.40,NE,53,3.0,4.0,89,0.00,,,0.03,,2013-02-01 21:11:00,
2013-02-01 21:21:00,47.0,44.0,30.40,NE,36,3.0,5.0,89,0.00,,,0.03,,2013-02-01 21:21:00,
2013-02-01 21:31:00,47.0,44.0,30.39,NE,50,3.0,4.0,89,0.00,,,0.03,,2013-02-01 21:31:00,
2013-02-01 21:41:00,47.0,44.0,30.39,NE,50,3.0,4.0,89,0.00,,,0.03,,2013-02-01 21:41:00,
2013-02-01 21:52:00,46.0,43.0,30.39,ENE,59,3.0,4.0,90,0.00,,,0.03,,2013-02-01 21:52:00,
2013-02-01 22:01:00,46.0,43.0,30.39,NE,51,2.0,4.0,90,0.00,,,0.03,,2013-02-01 22:01:00,
2013-02-01 22:11:00,46.0,43.0,30.39,NE,51,2.0,4.0,90,0.00,,,0.03,,2013-02-01 22:11:00,
2013-02-01 22:21:00,47.0,44.0,30.39,NE,51,1.0,3.0,90,0.00,,,0.03,,2013-02-01 22:21:00,
2013-02-01 22:32:00,47.0,44.0,30.38,NE,51,1.0,2.0,89,0.00,,,0.03,,2013-02-01 22:32:00,
2013-02-01 22:41:00,47.0,44.0,30.38,NE,51,1.0,2.0,89,0.00,,,0.03,,2013-02-01 22:41:00,
2013-02-01 22:52:00,47.0,44.0,30.37,NE,50,1.0,3.0,88,0.00,,,0.03,,2013-02-01 22:52:00,
2013-02-01 23:01:00,48.0,45.0,30.38,NE,50,0.0,2.0,88,0.00,,,0.03,,2013-02-01 23:01:00,
2013-02-01 23:11:00,48.0,45.0,30.38,NE,50,0.0,2.0,88,0.00,,,0.03,,2013-02-01 23:11:00,
2013-02-01 23:21:00,48.0,44.0,30.38,NE,50,1.0,2.0,87,0.00,,,0.03,,2013-02-01 23:21:00,
2013-02-01 23:31:00,49.0,44.0,30.37,NE,50,0.0,2.0,84,0.00,,,0.03,,2013-02-01 23:31:00,
2013-02-01 23:41:00,49.0,44.0,30.37,NE,50,0.0,2.0,84,0.00,,,0.03,,2013-02-01 23:41:00,
2013-02-01 23:52:00,49.0,45.0,30.38,NE,50,1.0,3.0,85,0.00,,,0.03,,2013-02-01 23:52:00,